Tracking 19847 objects as of 16-Sep-2019
HD Live streaming from Space Station
objects crossing your sky now

FENGYUN 1C DEB

Track FENGYUN 1C DEB now!
10-day predictions


NORAD ID: 32429
Int'l Code: 1999-025DAR
Perigee: 810.4 km
Apogee: 900.5 km
Inclination: 99.1 °
Period: 101.9 minutes
Semi major axis: 7226 km
RCS: 0.0038 m2 (small)
Launch date: May 10, 1999
Source: People's Republic of China (PRC)
Launch site: Taiyaun Space Center, China (TSC)

Note: This is SATELLITE DEBRIS
aabbcc
Your satellite tracking list
Your tracking list is empty




NASA's NSSDC Master Catalog

Two Line Element Set (TLE):
1 32429U 99025DAR 19256.05358774 +.00001142 +00000-0 +62283-3 0  9999
2 32429 099.0976 335.0799 0062370 300.7483 058.7556 14.13240626629924
Source of the keplerian elements: AFSPC